User: anonymous   Login
Location: Houston
(29.7630°N, 95.3630°W)
Time: 14:18:33
(UTC-06:00)
Language:

Saudisat 1A - Orbit

View from above orbital plane
View from above orbital plane
View from above satellite
View from above satellite

Ground track
Ground track

The orbit data is extracted from the following two-line orbital elements,

1 26546U 00057B   17022.22246212  .00000114  00000-0  27866-4 0  9997
2 26546  64.5547  72.1317 0041029 242.1810 117.5139 14.90436564884909
Epoch (UTC): 22 January 2017 05:20:20
Eccentricity: 0.0041029
inclination: 64.5547°
perigee height: 568 km
apogee height: 625 km
right ascension of ascending node: 72.1317°
argument of perigee: 242.1810°
revolutions per day: 14.90436564
mean anomaly at epoch: 117.5139°
orbit number at epoch: 88490

The dashed part of the orbit path shows where the satellite is in the earth's shadow,  

DLR